Zurück zum Katalog

COSMOS 1261 DEB

LostHEO
NORAD 33520·DEBRIS·🇷🇺 Russia

Gestartet Mar 31, 1981 von Plesetsk Cosmodrome

Loading…

Nächste Überflüge (nächste 24 Stunden)

TLE

VeraltetSource: Space-Track

Epoche: Mar 12, 2017, 10:57 UTC

1 33520U 81031M   17071.45636941 -.00000620  00000-0  00000+0 0  9998
2 33520  69.2481 278.2744 5383156  80.3824  21.0722  2.00811053 83280

Verfolge COSMOS 1261 DEB in Echtzeit mit AllMySat

Download on the App Store